Monticello, KY

7:12 AM CST on February 10, 2016 (GMT -0600)
Wayne County

Weather History for KEKQ - August, 2013

Change the Weather History Date:

Friday, August 30, 2013

  Actual Average Record
Temperature  
Mean Temperature 76 °F -  
Max Temperature 88 °F 84 °F 95 °F (1957)
Min Temperature 63 °F 62 °F 46 °F (1965)
Cooling Degree Days 10    
Growing Degree Days 26 (Base 50)    
Moisture  
Dew Point 68 °F    
Average Humidity 92    
Maximum Humidity 100    
Minimum Humidity 48    
Precipitation  
Precipitation 0.00 in - - ()
Sea Level Pressure  
Sea Level Pressure 30.00 in    
Wind  
Wind Speed 0 mph (West)    
Max Wind Speed 8 mph    
Max Gust Speed -    
Visibility 3 miles    
Events Fog    
Averages and records for this station are not official NWS values.
T = Trace of Precipitation, MM = Missing Value Source: NWS Daily Summary

Daily Weather History Graph

Daily Weather History Graph

Search for Another Location

Airport or City:

Trip Planner

Search our weather history database for the weather conditions in past years. The results will help you decide how hot, cold, wet, or windy it might be!

Date:

Astronomy

Aug. 30, 2013 Rise Set
Actual Time 6:08 AM CDT 7:10 PM CDT
Civil Twilight 5:42 AM CDT 7:36 PM CDT
Nautical Twilight 5:10 AM CDT 8:08 PM CDT
Astronomical Twilight 4:37 AM CDT 8:40 PM CDT
Moon 12:51 AM CDT (8/30) 3:20 PM CDT (8/30)
Length of Visible Light 13h 54m
Length of Day
13h 01m
Waning Crescent, 29% of the Moon is Illuminated
Aug 30
Waning Crescent
Sep 5
New
Sep 12
First Quarter
Sep 19
Full
Sep 26
Last Quarter

Hourly Weather History & Observations

Time (CDT) Temp. Heat Index Dew Point Humidity Pressure Visibility Wind Dir Wind Speed Gust Speed Precip Events Conditions
12:56 AM 68.9 °F - 68.9 °F 100% 30.01 in 3.0 mi Calm Calm - N/A   Clear
1:07 AM 66.2 °F - 66.2 °F 100% 30.02 in 2.5 mi Calm Calm - N/A   Clear
1:56 AM 65.8 °F - 65.8 °F 100% 30.00 in 2.5 mi Calm Calm - N/A   Clear
2:04 AM 66.2 °F - 66.2 °F 100% 30.02 in 3.0 mi Calm Calm - N/A   Clear
2:09 AM 66.2 °F - 66.2 °F 100% 30.01 in 1.2 mi Calm Calm - N/A   Clear
2:11 AM 66.2 °F - 66.2 °F 100% 30.02 in 0.5 mi Calm Calm - N/A Fog Fog
2:22 AM 66.2 °F - 66.2 °F 100% 30.01 in 1.2 mi Calm Calm - N/A   Clear
2:24 AM 66.2 °F - 66.2 °F 100% 30.02 in 3.0 mi Calm Calm - N/A   Clear
2:38 AM 64.4 °F - 64.4 °F 100% 30.02 in 2.0 mi Calm Calm - N/A   Clear
2:56 AM 65.8 °F - 65.8 °F 100% 30.01 in 1.8 mi Calm Calm - N/A   Mostly Cloudy
3:05 AM 66.2 °F - 66.2 °F 100% 30.02 in 2.5 mi Calm Calm - N/A   Partly Cloudy
3:45 AM 66.2 °F - 66.2 °F 100% 30.02 in 1.5 mi Calm Calm - N/A   Clear
3:48 AM 66.2 °F - 66.2 °F 100% 30.02 in 1.0 mi Calm Calm - N/A   Clear
3:56 AM 64.9 °F - 64.9 °F 100% 30.01 in 0.2 mi Calm Calm - N/A Fog Fog
4:09 AM 64.4 °F - 64.4 °F 100% 30.02 in 0.2 mi Calm Calm - N/A Fog Fog
4:44 AM 64.4 °F - 64.4 °F 100% 30.02 in 0.2 mi Calm Calm - N/A Fog Fog
4:56 AM 63.9 °F - 63.9 °F 100% 30.01 in 1.2 mi Calm Calm - N/A   Clear
5:01 AM 64.4 °F - 64.4 °F 100% 30.02 in 0.8 mi Calm Calm - N/A   Clear
5:04 AM 64.4 °F - 64.4 °F 100% 30.02 in 0.2 mi Calm Calm - N/A Fog Fog
5:18 AM 64.4 °F - 64.4 °F 100% 30.02 in 0.2 mi Calm Calm - N/A Fog Fog
5:33 AM 64.4 °F - 64.4 °F 100% 30.02 in 0.5 mi Calm Calm - N/A Fog Fog
5:39 AM 64.4 °F - 64.4 °F 100% 30.02 in 1.0 mi Calm Calm - N/A   Mist
5:43 AM 64.4 °F - 64.4 °F 100% 30.02 in 1.5 mi Calm Calm - N/A   Mostly Cloudy
5:56 AM 64.9 °F - 64.9 °F 100% 30.01 in 0.2 mi Calm Calm - N/A Fog Fog
6:05 AM 64.4 °F - 64.4 °F 100% 30.02 in 0.2 mi Calm Calm - N/A Fog Fog
6:56 AM 65.8 °F - 65.8 °F 100% 30.03 in 0.2 mi Calm Calm - N/A Fog Fog
7:17 AM 66.2 °F - 66.2 °F 100% 30.03 in 1.0 mi Calm Calm - N/A   Clear
7:25 AM 69.8 °F - 69.8 °F 100% 30.04 in 1.5 mi Calm Calm - N/A   Clear
7:34 AM 69.8 °F - 69.8 °F 100% 30.04 in 2.0 mi Calm Calm - N/A   Clear
7:48 AM 71.6 °F - 71.6 °F 100% 30.03 in 3.0 mi Calm Calm - N/A   Clear
7:56 AM 70.9 °F - 70.9 °F 100% 30.03 in 3.0 mi Calm Calm - N/A   Clear
8:56 AM 77.0 °F - 70.9 °F 81% 30.03 in 10.0 mi Calm Calm - N/A   Partly Cloudy
9:56 AM 81.9 °F 86.0 °F 70.9 °F 69% 30.02 in 10.0 mi SSW 5.8 mph - N/A   Clear
10:56 AM 82.9 °F 89.4 °F 73.9 °F 74% 30.02 in 10.0 mi SW 5.8 mph - N/A   Partly Cloudy
11:56 AM 86.0 °F 93.8 °F 73.9 °F 67% 30.01 in 9.0 mi Calm Calm - N/A   Scattered Clouds
12:56 PM 86.0 °F 91.1 °F 70.9 °F 60% 29.99 in 10.0 mi Calm Calm - N/A   Partly Cloudy
1:56 PM 88.0 °F 92.1 °F 68.9 °F 53% 29.98 in 10.0 mi WSW 8.1 mph - N/A   Clear
2:56 PM 88.9 °F 93.8 °F 70.0 °F 53% 29.96 in 10.0 mi WNW 8.1 mph - N/A   Clear
3:56 PM 88.9 °F 93.8 °F 70.0 °F 53% 29.96 in 10.0 mi NW 4.6 mph - N/A   Partly Cloudy
4:56 PM 88.0 °F 90.3 °F 65.8 °F 48% 29.94 in 10.0 mi WNW 4.6 mph - N/A   Clear
5:56 PM 86.0 °F 91.1 °F 70.9 °F 60% 29.94 in 10.0 mi West 3.5 mph - N/A   Clear
6:56 PM 79.0 °F - 72.9 °F 81% 29.94 in 8.0 mi Calm Calm - N/A   Clear
7:56 PM 73.9 °F - 72.0 °F 93% 29.94 in 6.0 mi Calm Calm - N/A   Clear
8:56 PM 72.0 °F - 70.9 °F 96% 29.93 in 4.0 mi Calm Calm - N/A   Clear
9:47 PM 71.6 °F - 71.6 °F 100% 29.95 in 2.5 mi Calm Calm - N/A   Clear
9:56 PM 70.9 °F - 70.9 °F 100% 29.94 in 2.5 mi Calm Calm - N/A   Clear
10:09 PM 71.6 °F - 71.6 °F 100% 29.95 in 4.0 mi Calm Calm - N/A   Clear
10:28 PM 71.6 °F - 71.6 °F 100% 29.95 in 2.5 mi Calm Calm - N/A   Clear
10:48 PM 71.6 °F - 71.6 °F 100% 29.95 in 3.0 mi Calm Calm - N/A   Clear
10:56 PM 70.0 °F - 70.0 °F 100% 29.94 in 2.0 mi Calm Calm - N/A   Clear
11:32 PM 69.8 °F - 69.8 °F 100% 29.95 in 1.8 mi Calm Calm - N/A   Clear
11:42 PM 69.8 °F - 69.8 °F 100% 29.94 in 2.0 mi Calm Calm - N/A   Clear
11:56 PM 70.0 °F - 70.0 °F 100% 29.93 in 2.0 mi Calm Calm - N/A   Clear